This demonstration page uses our WeatherBlox Daily Observations layout. Learn more.

41.55636, -103.73856

Hourly Observations for October 2, 2016

Temp ( °F °C ) Dew Point ( °F °C ) Humidity (%) Winds ( mph kmh ) Pressure ( in mb ) Visibility ( mi km ) Precip ( " mm )
12:53 am 00:53 Mostly Clear 58 14.4 49 9.4 72 72 E 7 11 29.91 1013 10 16.0934 0 0
1:53 am 01:53 Mostly Cloudy 57 13.9 50 10 78 78 N 5 7 29.91 1013 10 16.0934 0 0
2:53 am 02:53 Mostly Clear 55 12.8 48 8.9 77 77 ESE 7 11 29.9 1013 10 16.0934 0 0
3:53 am 03:53 Clear 53 11.7 47 8.3 80 80 SSE 7 11 29.9 1012 10 16.0934 0 0
4:53 am 04:53 Clear 55 12.8 48 8.9 77 77 S 6 9 29.9 1013 10 16.0934 0 0
5:53 am 05:53 Clear 55 12.8 47 8.3 74 74 Calm 29.91 1013 10 16.0934 0 0
6:53 am 06:53 Clear 54 12.2 47 8.3 77 77 E 3 6 29.94 1014 10 16.0934 0 0
7:53 am 07:53 Sunny 53 11.7 47 8.3 80 80 Calm 29.96 1015 10 16.0934 0 0
8:53 am 08:53 Sunny 60 15.6 50 10 70 70 NW 5 7 29.97 1015 10 16.0934 0 0
9:53 am 09:53 Sunny 68 20 48 8.9 49 49 VRB 6 9 29.96 1015 10 16.0934 0 0
10:53 am 10:53 Sunny 73 22.8 47 8.3 40 40 VRB 5 7 29.94 1014 10 16.0934 0 0
11:53 am 11:53 Sunny 77 25 45 7.2 32 32 VRB 3 6 29.92 1013 10 16.0934 0 0
12:53 pm 12:53 Sunny 80 26.7 45 7.2 29 29 VRB 3 6 29.89 1012 10 16.0934 0 0
1:53 pm 13:53 Sunny 81 27.2 43 6.1 26 26 SSE 6 9 29.86 1011 10 16.0934 0 0
2:53 pm 14:53 Sunny 83 28.3 44 6.7 25 25 undefined N/A 29.84 1011 10 16.0934 0 0
3:53 pm 15:53 Sunny 82 27.8 44 6.7 26 26 SSE 8 13 29.82 1010 10 16.0934 0 0
4:53 pm 16:53 Sunny 81 27.2 47 8.3 30 30 ESE 13 20 29.81 1010 10 16.0934 0 0
5:53 pm 17:53 Sunny 75 23.9 49 9.4 40 40 E 8 13 29.81 1010 10 16.0934 0 0
6:53 pm 18:53 Clear 67 19.4 50 10 55 55 E 9 15 29.82 1010 10 16.0934 0 0
7:53 pm 19:53 Partly Cloudy 67 19.4 49 9.4 53 53 ESE 10 17 29.83 1010 10 16.0934 0 0
8:53 pm 20:53 Clear 65 18.3 50 10 59 59 ESE 9 15 29.81 1009 10 16.0934 0 0
9:53 pm 21:53 Clear 63 17.2 50 10 63 63 ESE 12 19 29.78 1009 10 16.0934 0 0
10:53 pm 22:53 Clear 63 17.2 50 10 63 63 E 13 20 29.75 1008 10 16.0934 0 0
11:53 pm 23:53 Mostly Cloudy with Nearby Thunderstorms 63 17.2 51 10.6 65 65 ESE 12 19 29.75 1008 10 16.0934 0 0

Powered by AerisWeather